Location: Eastlake (historical)
(39.0077°N, 122.6678°W)
Time: 09:28:24
(UTC+00:00)

Meteor 1-26 Rocket - Pass Details

Date: 25 November 2020
Orbit: 807 x 928 km, 81.3° (Epoch: 25 January)

Event Time Altitude Azimuth Distance (km) Brightness Sun altitude
Rises 13:47:01 0° 348° (NNW) 3,520 7.2 -15.0°
Reaches altitude 10° 13:49:31 10° 346° (NNW) 2,559 6.4 -14.5°
Maximum altitude 13:55:18 70° 264° (W) 922 4.2 -13.5°
Drops below altitude 10° 14:00:51 10° 182° (S) 2,460 6.8 -12.4°
Sets 14:03:13 0° 180° (S) 3,374 7.6 -12.0°
